Джвари

Грузия     42°43′08″N   42°02′44″E
темп.,
°C
ветер,
м/с
пор.,
м/с
влажн.,
%
обл.,
%
осадки,
мм/ч
давл.,
гПа
погр.,
м
10 мая, пн
пн1001:00+3зюз239975 1.9 1025263
04:00+1ссз229224 2.3 102678
07:00+2с118782 0.3 1026132
10:00+5юз228534 1.4 1025707
13:00+6зюз447137 2.1 10241330
16:00+7зюз346484 3.3 10241327
19:00+5зюз227724 0.9 1024654
22:00+1ссв228813 1.0 102665
11 мая, вт
вт1101:000ссв33824 0.0 102546
04:000ссв44763 0.0 102454
07:00+1ссв446999 0.0 102384
10:00+8юз024193 0.0 1019899
13:00+11ююз334513 0.0 10171270
16:00+12ююз2241100 0.0 10161029
19:00+10ююз1163100 0.0 1017170
22:00+5ссв218061 0.0 101917
12 мая, ср
ср1201:00+4ссв33634 0.0 101937
04:00+4ссв54501 0.0 101857
07:00+6ссв55510 0.0 101764
10:00+15ююз11430 0.0 1014422
13:00+19ююз22440 0.0 1013862
16:00+20ююз21410 0.0 1013951
19:00+18св225631 0.0 101323
22:00+12ссв54442 0.0 101547
13 мая, чт
чт1301:00+11ссв66454 0.0 101473
04:00+11ссв66435 0.0 101472
07:00+12ссв66505 0.0 101477
10:00+22св23375 0.0 1012380
13:00+26ююз22335 0.0 10111574
16:00+26юз213262 0.0 10111513
19:00+23ссз11565 0.0 101112
22:00+16ссв555059 0.0 101451
14 мая, пт
пт1401:00+15ссв66490 0.0 101467
04:00+15ссв66460 0.0 101472
07:00+14ссв66520 0.0 101577
10:00+24св23343 0.0 1013380
13:00+27ююз22300 0.0 10121437
16:00+28юз21275 0.0 10121516
19:00+24ю116248 0.0 101211
22:00+18ссв434710 0.0 101336